Regional Weather Roundup
Issued by NWS Sioux Falls, SD

Home | Current Version | Previous Version | Graphics & Text | Print | Product List | Glossary Off
Versions: 1 2 3 4 5 6 7 8 9 10 11 12 13 14 15 16 17 18 19 20 21 22 23 24 25 26 27 28 29 30 31 32 33 34 35 36 37 38 39 40 41 42 43 44 45 46 47 48 49 50

000
ASUS43 KFSD 171310
RWRFSD

WEATHER ROUNDUP FOR SE SOUTH DAKOTA/SW MINNESOTA/NW IOWA
NATIONAL WEATHER SERVICE SIOUX FALLS SD
800 AM CDT WED SEP 17 2014

NOTE: "FAIR" INDICATES FEW OR NO CLOUDS BELOW 12,000 FEET WITH NO
SIGNIFICANT WEATHER AND OR OBSTRUCTIONS TO VISIBILITY.


SDZ038>040-050-052>070-171400-
SOUTHEAST SOUTH DAKOTA

CITY           SKY/WX    TMP DP  RH WIND       PRES   REMARKS
CHAMBERLAIN    FOG       47  47 100 CALM      29.91R VSB<1/4
HURON          PTCLDY    48  46  93 CALM      29.92R
MADISON        FOG       45  45 100 E3        29.93R VSB<1/4
MITCHELL       CLEAR     48  47  96 S3        29.92R
SIOUX FALLS    PTCLDY    51  49  92 CALM      29.93R
WINNER         FAIR      52  49  89 SE3       29.91S
YANKTON        CLEAR     48  48 100 CALM      29.92R
$$

MNZ071-072-080-081-089-090-097-098-171400-
SOUTHWEST MINNESOTA

CITY           SKY/WX    TMP DP  RH WIND       PRES   REMARKS
FAIRMONT       MOSUNNY   52  45  76 S7        29.95S
JACKSON        CLEAR     52  46  82 S6        29.95S
LUVERNE        CLEAR     50  46  87 CALM      29.95R
MARSHALL       CLEAR     52  46  82 CALM      29.92R
MONTEVIDEO     CLEAR     52  50  93 CALM      29.94R
PIPESTONE      CLEAR     50  46  87 CALM      29.93S
REDWOOD FALLS  CLEAR     52  50  93 SE6       29.93R
TRACY          CLEAR     54  50  85 SW8       29.92S
WINDOM           N/A     52  48  87 CALM      29.94S
WORTHINGTON    PTCLDY    52  48  87 S3        29.95R
$$

IAZ001>003-012>014-020>022-031-032-NEZ013-014-SDZ071-171400-
NORTHWEST IOWA

CITY           SKY/WX    TMP DP  RH WIND       PRES   REMARKS
CHEROKEE       CLEAR     48  48 100 CALM      29.95R FOG
DENISON        CLEAR     52  52 100 CALM      29.93R
ESTHERVILLE    PTCLDY    47  46  97 S5        29.96R
LE MARS        CLEAR     50  50 100 CALM      29.94R
ORANGE CITY    MOCLDY    54  48  82 CALM      29.94R
SHELDON        PTCLDY    48  48 100 CALM      29.93S
SIOUX CITY     CLEAR     54  52  93 CALM      29.93S
SPENCER        CLEAR     50  47  89 SE5       29.95S
STORM LAKE     CLEAR     52  52 100 S7        29.94S
$$

ABBREVIATIONS USED IN REMARKS
   TC - TEMPERATURE IN CELSIUS
  WCI - WIND CHILL INDEX
   HX - HEAT INDEX
  VSB - VISIBILITY



USA.gov is the U.S. government's official web portal to all federal, state and local government web resources and services.